Airfield :







YOU CAN JOIN US ON...

 
LOGIN :

Register | Disclaimer

   EN    FR    IT 

 









Legend :    VFR   Marginal VFR   IFR   Intensive IFR   Very Intensive IFR
Visi :
Ceiling :
>= 8 km
>= 3000ft
5 to 8 km
1000 to 3000 ft
1500m to 5 km
500 to 1000 ft
800 to 1500m
200 to 500 ft
< 800m
< 200 ft
Symbols :   Thunderstorms  Fog  Heavy snow  Heavy precipitations  Wind > 20 kt






- Airport Elevation : 74 ft
- IATA code : PMV


SVMG - Del Caribe Int. Gen Santiago M

CURRENT METAR :
  • 281802Z AUTO 09012KT NCD 31/23 Q1012

EXPIRED METARs :
  • 281702Z AUTO 09013KT NCD 23/24 Q1013
  • 281700Z /////KT 9999 SCT010 ///// Q1011 NOSIG

TAF TAF SVMG
Valid from the 28 at 18:00 until the 29 at 18:00 UTC


281600Z 2818/2918 09010KT 9999 FEW016 SCT070 TX33/2818Z TN25/2809Z
PROB30
TEMPO 2818/2822 09012KT 8000 DZ BKN070
SVZM FIR / South America



MET'MAP, your aeronautical weather chart ! - Copyright ORBIFLY December 2007 - Disclaimer

ORBIFLY MET'MAP TEAM :

Programming & Development : Alexandra Zaïnal
Concept & original design : Baudouin d'Aumeries
Assistance for programming : Marc-Olivier Méhu
Technical & hardware support : Manuel Goepfert

Contact : metmap@orbifly.com




SOURCES & CREDITS :

   NOAA